Wind_Speed
11 11 11 12 12 12 12 13 13 12 12 12 12 11 10 10 9 8 7 7 5 4 2 1 0 2 3 4 4 4 5 5 6 7 7 8 8 9 9 9 9 9 10
9 9 9 10 10 10 10 11 12 12 12 12 12 11 11 10 10 9 7 7 6 5 4 3 2 1 1 3 4 4 5 6 7 7 8 8 9 10 10 10 10 10 11
8 8 8 8 8 8 9 9 10 10 10 10 11 11 11 11 10 10 9 7 6 6 4 3 2 2 1 1 2 3 4 5 6 6 7 8 9 9 10 10 10 11 11
8 8 7 7 7 7 7 7 8 8 8 9 9 9 10 10 9 9 8 7 6 6 5 4 3 2 1 1 1 2 3 4 5 6 7 8 8 9 9 10 11 11 11
9 8 7 7 7 7 7 7 7 7 6 7 7 8 8 9 9 9 8 7 6 5 6 5 4 3 2 2 2 2 3 4 5 6 7 7 8 9 9 10 11 11 12
11 9 8 8 7 7 7 6 6 6 6 6 6 7 7 8 9 9 8 7 6 6 6 6 5 4 3 4 4 5 5 5 5 6 7 7 7 8 9 10 11 12 12
12 11 10 10 9 8 8 8 7 6 6 6 6 6 7 7 8 9 9 8 7 7 7 6 6 5 5 5 6 5 5 5 6 6 7 7 8 9 9 10 12 13 13
12 12 11 10 10 9 9 9 8 7 7 7 6 6 6 7 7 8 9 9 8 8 8 7 7 7 6 7 7 7 7 7 8 8 8 9 10 10 10 11 11 13 13
14 13 13 12 12 12 12 11 10 9 9 9 8 8 8 7 7 8 8 9 9 9 8 8 8 8 8 8 8 9 9 9 10 10 10 10 11 11 11 12 12 13 13
17 15 14 14 13 14 14 13 12 12 11 10 10 10 10 9 9 8 8 9 10 10 9 10 10 10 10 10 10 10 10 10 11 11 11 11 11 11 12 12 13 14 14
18 17 17 16 16 16 16 15 15 14 13 12 12 12 12 11 11 10 10 11 11 11 11 11 11 12 12 12 12 12 12 12 12 12 12 13 13 14 14 14 15 15 16
21 20 19 18 19 18 17 18 17 16 15 15 15 14 14 14 13 12 12 13 13 13 13 12 13 13 13 13 14 14 14 14 14 14 14 14 15 16 16 16 16 16 17
24 23 21 21 22 21 20 19 19 19 19 18 17 16 16 16 15 14 14 15 15 15 14 14 14 14 15 15 15 15 15 15 15 15 15 15 16 17 17 17 18 18 18
25 25 25 24 23 24 23 23 22 23 22 20 20 19 19 18 18 17 17 17 17 17 17 16 16 17 17 18 17 16 17 17 17 17 17 18 19 19 19 19 19 20 20
28 27 28 27 26 26 26 25 24 24 24 22 21 21 20 20 20 20 20 20 20 20 20 20 20 20 19 19 19 19 19 19 19 20 20 21 22 22 21 21 21 21 21
30 29 31 30 28 28 28 27 27 27 26 24 24 24 23 23 23 24 24 24 23 23 23 22 22 22 22 22 22 22 22 22 22 22 23 23 23 23 23 23 23 22 22
32 31 31 31 31 31 30 30 28 28 28 28 27 27 27 27 27 27 27 26 27 26 25 25 25 25 25 24 24 24 25 24 24 25 25 25 26 25 25 26 25 24 24
34 33 33 33 33 32 32 32 33 32 32 31 30 29 29 30 30 29 29 29 29 29 28 28 28 27 27 27 27 27 26 26 26 26 27 27 28 28 29 28 27 26 25
34 34 34 34 34 34 34 34 34 34 34 34 34 33 32 33 33 33 33 33 33 32 31 31 31 30 29 29 29 29 28 28 28 28 28 29 29 29 29 28 27 27 26
36 35 35 36 36 36 37 37 37 37 36 36 36 36 36 36 36 35 36 36 36 36 36 35 34 34 32 31 30 30 29 29 29 30 30 30 30 29 28 27 27 27 27
38 37 37 38 38 38 38 38 39 40 40 39 39 40 39 39 40 39 39 39 39 39 38 37 36 35 33 31 31 30 30 30 31 31 31 31 30 30 28 28 28 27 28
39 39 38 38 39 38 39 39 41 41 41 41 41 41 42 42 43 43 42 41 41 40 40 39 37 35 34 33 33 33 33 32 32 32 32 33 32 30 29 29 29 29 29
39 40 39 39 39 39 40 40 40 41 42 42 42 43 43 43 44 44 44 44 44 43 42 41 38 37 36 36 36 36 36 36 35 33 33 33 33 32 31 31 31 31 31
40 40 41 40 40 40 40 40 40 41 42 43 44 44 44 45 45 46 46 46 46 45 43 42 40 38 38 38 38 38 37 37 37 35 35 35 34 33 33 33 33 33 33
39 41 41 40 40 40 40 40 40 41 42 42 43 44 45 46 46 47 47 46 45 43 43 42 41 40 40 39 39 39 39 38 38 37 37 37 36 34 34 34 34 34 34
38 39 39 40 41 41 42 42 41 42 42 43 44 45 45 46 46 46 46 44 43 42 43 43 42 42 41 41 39 39 37 37 38 38 38 37 35 35 35 35 35 35 35
Wind_Direction
19 24 29 34 38 40 42 44 46 46 47 48 50 51 50 49 48 51 54 56 60 64 67 78 201 224 234 239 242 236 240 246 251 254 253 257 259 256 258 259 261 265 266
4 12 19 24 30 35 40 42 44 44 45 44 45 47 47 47 48 50 49 46 46 53 64 68 70 60 239 230 232 234 242 251 256 257 257 260 260 259 262 262 260 264 267
352 358 2 11 17 24 31 35 36 37 38 38 40 41 42 42 44 44 42 42 41 40 41 44 47 45 40 220 236 240 248 255 257 260 261 262 264 265 263 262 263 264 265
337 346 347 358 360 5 11 18 23 25 27 30 32 33 34 35 34 33 32 31 29 29 32 27 11 356 345 314 276 264 262 263 264 266 267 265 267 268 270 268 267 269 270
318 332 331 335 339 342 349 358 5 7 10 15 20 23 24 24 21 15 15 19 17 18 21 17 4 350 336 323 310 307 299 287 279 275 274 274 270 268 270 272 272 274 274
298 311 316 312 318 322 323 331 341 343 348 355 360 6 12 14 13 14 15 11 7 8 8 6 1 357 343 326 312 304 300 301 296 290 283 285 285 282 277 277 279 280 279
282 291 299 297 297 307 311 313 318 322 325 331 340 348 356 2 5 8 9 6 7 8 5 358 351 346 336 325 319 303 301 302 301 303 299 296 294 291 289 289 287 286 285
271 280 287 285 285 291 300 300 307 307 309 309 316 323 332 339 348 355 358 1 1 356 354 351 343 336 326 321 319 309 300 304 306 302 302 301 296 294 293 294 293 290 288
265 270 275 280 282 287 295 294 291 294 296 296 301 304 309 316 326 336 342 346 348 346 343 340 339 332 326 319 314 312 306 304 307 306 305 307 300 299 297 294 293 294 295
263 267 276 276 281 287 288 287 286 290 290 290 294 300 303 303 307 314 321 326 329 334 336 335 333 327 321 314 311 309 302 300 304 304 303 303 304 302 303 301 297 294 294
261 263 268 273 279 281 281 282 282 284 286 290 293 297 298 299 298 299 304 309 312 316 320 320 320 320 317 313 308 306 301 297 299 300 299 298 299 300 301 302 302 298 294
258 262 264 267 272 275 279 276 275 279 285 288 290 293 296 299 295 293 297 300 303 305 305 306 309 313 314 311 307 303 302 299 298 299 298 296 295 297 300 299 300 300 297
262 266 264 268 271 273 274 274 274 277 279 282 286 288 291 294 293 292 294 295 297 298 298 300 303 308 308 308 308 304 299 298 298 297 296 295 297 297 298 298 297 298 297
263 264 266 270 271 272 273 273 273 275 276 276 279 282 285 287 287 286 288 290 292 293 295 295 297 300 301 301 301 301 299 296 294 293 295 297 297 297 297 296 296 296 296
263 263 264 267 269 269 269 269 271 273 271 271 274 277 279 281 282 282 284 287 289 290 289 289 291 293 294 294 294 293 295 295 295 292 292 293 295 296 295 296 295 294 294
261 264 267 265 266 267 268 267 268 269 268 268 270 272 274 276 278 280 282 285 287 288 287 286 286 288 288 288 288 289 290 289 291 291 290 291 290 293 294 295 295 294 294
260 264 268 267 267 268 269 269 270 267 267 267 268 270 273 274 275 277 280 282 283 283 284 285 285 285 285 284 284 285 285 286 286 287 289 290 288 289 291 293 291 292 292
260 262 266 268 269 270 269 269 269 269 268 268 269 270 272 274 274 274 275 277 279 279 278 281 282 282 282 283 282 281 282 283 284 285 287 289 288 287 287 287 288 289 291
258 262 267 269 269 270 270 270 269 269 270 271 270 270 272 272 273 274 275 277 277 277 276 277 278 278 279 280 281 281 281 282 283 284 285 286 287 286 287 285 285 287 286
261 262 264 266 267 267 268 269 269 267 268 270 271 272 272 271 271 272 274 275 275 276 276 275 275 275 275 278 280 280 280 281 282 282 283 285 286 287 288 287 287 287 285
262 262 264 266 267 266 267 267 267 267 267 268 269 270 271 273 274 274 274 274 275 276 276 277 275 274 276 278 279 279 279 279 280 281 281 284 286 286 286 286 287 286 285
265 266 266 267 268 267 267 268 268 268 267 269 270 271 271 272 274 275 276 276 276 276 277 277 276 280 279 277 277 278 278 279 279 279 280 282 282 283 284 285 286 285 285
267 268 268 268 268 268 268 268 268 268 268 268 269 270 271 272 273 274 274 274 275 276 276 278 277 280 279 277 277 276 276 278 278 278 280 281 280 280 281 282 283 283 284
267 268 269 270 268 268 268 267 267 267 267 268 268 269 270 271 272 273 273 273 273 273 273 274 275 276 276 277 278 277 278 280 278 278 278 279 279 279 279 280 281 281 282
268 268 270 269 268 269 268 267 267 267 269 269 269 269 270 271 271 272 273 274 273 272 273 273 273 274 275 277 277 276 277 278 277 279 279 278 276 277 277 278 279 279 280
269 270 270 269 269 271 271 270 270 270 269 269 270 271 271 272 272 272 272 271 273 274 274 275 275 276 276 275 275 275 277 278 279 279 279 279 276 276 275 276 277 278 279
Height
5918 5916 5914 5912 5911 5909 5908 5906 5905 5903 5902 5900 5898 5897 5896 5894 5893 5892 5890 5889 5888 5887 5887 5886 5886 5886 5886 5886 5886 5886 5886 5886 5886 5886 5886 5886 5885 5885 5885 5884 5884 5884 5883
5918 5917 5916 5914 5912 5911 5909 5908 5906 5905 5903 5902 5900 5898 5897 5895 5894 5892 5891 5890 5889 5888 5887 5886 5886 5885 5885 5885 5885 5885 5885 5885 5885 5884 5884 5884 5884 5883 5882 5882 5881 5881 5881
5919 5917 5916 5914 5913 5912 5910 5909 5907 5906 5904 5903 5901 5899 5898 5896 5895 5893 5891 5890 5889 5888 5887 5886 5886 5885 5885 5884 5884 5884 5883 5883 5883 5882 5882 5882 5881 5881 5880 5880 5879 5879 5878
5918 5917 5916 5914 5913 5912 5911 5909 5908 5906 5905 5903 5902 5900 5898 5897 5895 5893 5892 5891 5889 5888 5887 5886 5885 5885 5884 5883 5883 5883 5882 5881 5881 5881 5880 5880 5879 5878 5878 5878 5877 5876 5875
5917 5916 5915 5914 5913 5912 5910 5909 5908 5906 5905 5904 5902 5900 5899 5897 5896 5893 5892 5890 5889 5888 5886 5885 5885 5884 5883 5883 5882 5882 5881 5880 5880 5879 5878 5878 5877 5876 5875 5875 5874 5874 5873
5915 5914 5913 5913 5911 5910 5909 5908 5907 5906 5905 5903 5902 5900 5899 5897 5895 5893 5891 5890 5888 5887 5886 5885 5884 5883 5883 5882 5881 5880 5879 5879 5878 5877 5876 5876 5875 5874 5873 5872 5871 5871 5870
5911 5912 5911 5910 5910 5909 5908 5907 5906 5905 5903 5902 5901 5899 5898 5897 5895 5893 5891 5889 5888 5887 5886 5885 5883 5882 5881 5881 5880 5879 5878 5877 5876 5875 5874 5873 5872 5871 5870 5869 5868 5867 5866
5906 5907 5907 5907 5907 5906 5906 5905 5904 5903 5902 5900 5899 5898 5897 5896 5894 5893 5891 5889 5888 5886 5885 5884 5882 5881 5880 5879 5878 5877 5876 5875 5874 5873 5871 5870 5869 5868 5867 5866 5865 5864 5862
5902 5903 5904 5903 5903 5903 5903 5902 5901 5900 5899 5898 5897 5896 5895 5894 5893 5891 5890 5888 5887 5886 5884 5882 5881 5879 5878 5877 5876 5874 5873 5872 5871 5870 5869 5867 5866 5865 5864 5863 5862 5861 5859
5898 5899 5899 5900 5900 5900 5899 5898 5897 5897 5896 5895 5894 5894 5893 5892 5890 5889 5888 5887 5885 5884 5882 5881 5879 5877 5876 5875 5873 5872 5871 5869 5868 5867 5866 5864 5863 5861 5860 5859 5858 5857 5856
5893 5894 5895 5895 5896 5895 5895 5894 5894 5893 5892 5892 5891 5890 5889 5888 5888 5887 5885 5884 5883 5881 5880 5878 5877 5875 5873 5872 5870 5869 5867 5866 5865 5863 5862 5861 5860 5858 5857 5855 5854 5852 5851
5887 5889 5890 5891 5891 5891 5890 5890 5889 5889 5888 5888 5888 5887 5886 5885 5884 5883 5882 5881 5879 5878 5876 5874 5873 5872 5870 5868 5867 5865 5864 5862 5861 5859 5858 5856 5855 5854 5853 5851 5850 5848 5846
5882 5883 5884 5885 5886 5886 5886 5885 5885 5884 5884 5883 5883 5882 5882 5881 5880 5879 5878 5877 5875 5873 5871 5870 5869 5868 5866 5864 5862 5861 5859 5858 5857 5855 5854 5852 5851 5849 5848 5846 5844 5843 5841
5875 5876 5877 5878 5879 5880 5880 5880 5880 5879 5878 5878 5878 5877 5877 5876 5875 5874 5873 5871 5870 5869 5867 5866 5864 5863 5861 5860 5858 5856 5855 5853 5852 5850 5849 5847 5845 5844 5842 5840 5839 5837 5836
5868 5869 5870 5871 5873 5873 5873 5872 5872 5872 5872 5872 5871 5871 5870 5869 5869 5868 5866 5865 5864 5863 5862 5860 5859 5857 5856 5854 5852 5851 5849 5848 5846 5845 5843 5841 5839 5837 5836 5834 5832 5831 5829
5860 5861 5861 5862 5864 5865 5865 5864 5865 5865 5865 5864 5864 5864 5863 5863 5862 5860 5859 5858 5857 5856 5855 5854 5852 5851 5849 5848 5846 5845 5843 5842 5840 5838 5836 5835 5833 5831 5829 5827 5826 5824 5822
5853 5853 5853 5854 5856 5856 5856 5856 5856 5856 5856 5856 5855 5855 5855 5854 5853 5853 5852 5851 5850 5848 5847 5846 5845 5844 5842 5841 5839 5837 5836 5834 5833 5831 5829 5828 5826 5824 5822 5820 5819 5817 5815
5844 5845 5845 5847 5847 5847 5847 5847 5847 5847 5847 5847 5846 5845 5846 5845 5845 5844 5843 5842 5841 5840 5839 5837 5836 5835 5834 5833 5831 5829 5827 5826 5825 5823 5822 5820 5818 5816 5814 5812 5811 5809 5808
5835 5836 5837 5837 5837 5837 5838 5838 5838 5838 5838 5837 5837 5836 5836 5836 5836 5835 5834 5833 5832 5831 5829 5828 5827 5826 5825 5824 5822 5821 5820 5818 5817 5815 5813 5812 5810 5808 5806 5804 5802 5801 5800
5826 5827 5827 5827 5827 5827 5828 5828 5828 5828 5827 5827 5827 5826 5825 5825 5825 5825 5824 5823 5822 5820 5819 5818 5817 5816 5815 5814 5813 5811 5811 5810 5808 5806 5805 5803 5801 5800 5797 5795 5794 5792 5791
5816 5817 5817 5817 5817 5817 5817 5817 5817 5817 5817 5816 5817 5817 5816 5815 5815 5813 5812 5811 5811 5809 5808 5807 5806 5805 5805 5804 5803 5802 5801 5800 5799 5797 5796 5794 5793 5791 5789 5787 5785 5784 5782
5804 5805 5806 5806 5806 5806 5806 5806 5806 5806 5806 5806 5805 5805 5805 5805 5803 5802 5801 5799 5798 5798 5797 5796 5795 5794 5793 5793 5793 5792 5791 5790 5789 5787 5786 5785 5784 5782 5780 5778 5777 5775 5774
5794 5794 5795 5795 5794 5794 5794 5794 5794 5794 5794 5793 5793 5793 5792 5792 5791 5790 5789 5788 5787 5786 5785 5785 5784 5783 5782 5782 5782 5781 5780 5779 5779 5777 5776 5774 5773 5772 5771 5769 5767 5766 5764
5783 5783 5783 5783 5782 5782 5782 5781 5781 5781 5781 5781 5781 5780 5780 5779 5778 5777 5776 5775 5774 5773 5773 5772 5771 5771 5771 5770 5770 5769 5769 5768 5768 5767 5765 5764 5763 5761 5760 5759 5757 5756 5754
5772 5772 5771 5771 5770 5770 5769 5769 5769 5768 5768 5767 5767 5767 5766 5766 5765 5764 5763 5761 5760 5759 5760 5759 5759 5759 5759 5759 5758 5757 5757 5757 5756 5755 5753 5752 5752 5751 5749 5748 5747 5745 5744
5760 5759 5759 5759 5758 5757 5757 5757 5756 5755 5755 5755 5754 5753 5753 5752 5751 5751 5750 5748 5748 5748 5747 5746 5746 5746 5747 5746 5746 5745 5745 5744 5743 5743 5742 5741 5740 5739 5738 5737 5736 5735 5733